Flag for Mexico Weather past 2 weeks in Mexicali, Baja California, Mexico

Now
65 °F

Sunny.


Feels Like: 65 °F
Forecast: 50 / 75 °F
Wind: 5 mph from Northwest

Location: Imperial County Airport

Current Time: Jan 27, 2015 at 5:55:34 PM

Latest Report: Jan 27, 2015 at 4:53 PM


Visibility: 10 mi

Pressure: 30.15 "Hg

Humidity: 68%

Dew point: 54 °F

Location of MexicaliLocation

Historic Weather in Mexicali — Graph

°F

Mexicali temperature yesterday

Maximum temperature yesterday: 65 °F (at 10:53 AM)
Minimum temperature yesterday: 55 °F (at 11:53 PM)
Average temperature yesterday: 59 °F

Past Weeks' High & Low Weather Summary

 TemperatureHumidityPressure
High79 °F (Jan 19, 2:53 PM)100% (Jan 27, 3:53 AM)30.33 "Hg (Jan 27, 3:53 AM)
Low37 °F (Jan 24, 5:53 AM)8% (Jan 22, 11:53 AM)29.84 "Hg (Jan 20, 4:53 PM)
Average58 °F44%30.11 "Hg
* Reported Jan 12 3:53 PM — Jan 27 3:53 PM, Mexicali, Weather by CustomWeather, © 2014

Note: Actual official high and low records may vary slightly from our data, if they occured in-between our weather recording intervals... More about our weather records

Advertising

Mexicali weather history for previous 24 hours

 ConditionsComfort  
Time TempWeatherWind HumidityBarometerVisibility
3:53 PM
Jan 27
66 °FPartly sunny.3 mph65%30.15 "Hg10 mi
3:04 PM66 °FOvercast.3 mph65%30.16 "Hg10 mi
2:53 PM66 °FOvercast.5 mph65%30.16 "Hg10 mi
1:53 PM65 °FMostly cloudy.3 mph68%30.17 "Hg10 mi
12:53 PM65 °FOvercast.5 mph68%30.17 "Hg10 mi
11:53 AM63 °FMostly cloudy.No wind73%30.20 "Hg10 mi
10:53 AM63 °FOvercast.3 mph73%30.23 "Hg10 mi
9:53 AM61 °FPartly sunny.No wind81%30.24 "Hg10 mi
9:04 AM58 °FMore clouds than sun.3 mph93%30.24 "Hg10 mi
8:53 AM57 °FMostly cloudy.3 mph96%30.24 "Hg10 mi
7:53 AM54 °FOvercast.No wind97%30.23 "Hg8 mi
6:53 AM52 °FFog.3 mph100%30.22 "Hg0 mi
5:53 AM54 °FFog.3 mph100%30.20 "Hg6 mi
5:02 AM54 °FFog.No wind97%30.19 "Hg3 mi
4:53 AM53 °FFog.No wind100%30.18 "Hg1 mi
3:53 AM52 °FFog.5 mph100%30.17 "Hg0 mi
3:00 AM56 °FPassing clouds.3 mph93%30.16 "Hg8 mi
1:53 AM57 °FOvercast.No wind93%30.16 "Hg10 mi
12:53 AM56 °FOvercast.No wind97%30.15 "Hg10 mi
11:53 PM
Jan 26
55 °FOvercast.3 mph96%30.15 "Hg9 mi
10:53 PM57 °FOvercast.3 mph93%30.14 "Hg10 mi
9:53 PM57 °FOvercast.No wind93%30.14 "Hg10 mi
8:53 PM57 °FOvercast.3 mph93%30.13 "Hg10 mi
7:53 PM57 °FLow clouds.No wind93%30.12 "Hg9 mi
6:53 PM56 °FMostly cloudy.5 mph97%30.10 "Hg10 mi
5:53 PM57 °FMostly cloudy.5 mph93%30.09 "Hg9 mi
Weather by CustomWeather, © 2014

See weather overviewHow to use our weather pages